Regional Weather Roundup
Issued by NWS

Home | Current Version | Previous Version | Graphics & Text | Print | Product List | Glossary On
Versions: 1 2 3 4 5 6 7 8 9 10 11 12 13 14 15 16 17 18 19 20 21 22 23 24 25 26 27 28 29 30 31 32 33 34 35 36 37 38 39 40 41 42 43 44 45 46 47 48 49 50
796
ASUS43 KMPX 010701
RWRMN
WEATHER ROUNDUP FOR MINNESOTA
NATIONAL WEATHER SERVICE TWIN CITIES/CHANHASSEN MN
200 AM CDT SUN MAY 01 2016


NOTE: "FAIR" INDICATES FEW OR NO CLOUDS BELOW 12,000 FEET WITH NO
SIGNIFICANT WEATHER AND/OR OBSTRUCTIONS TO VISIBILITY. N/A MEANS
CURRENT SKY AND/OR WEATHER CONDITIONS ARE NOT AVAILABLE.

MNZ060>063-068>070-010800-
   Twin Cities Metro

CITY           SKY/WX    TMP DP  RH WIND       PRES   REMARKS
TWIN CITIES    CLOUDY    46  31  55 N7        30.12S
ST PAUL        MOCLDY    45  32  60 N7        30.13S
CRYSTAL        CLOUDY    44  30  57 N7        30.12S
BLAINE         CLOUDY    43  34  70 N8        30.13S
EDEN PRAIRIE   CLOUDY    46  30  53 NE9       30.11S
SOUTH ST PAUL  CLOUDY    46  32  57 NE5       30.12R
LAKE ELMO      FAIR      45  34  65 N8        30.12S
$$
MNZ001>005-007-008-013>017-022>024-027-028-010800-
   Northwest Minnesota

CITY           SKY/WX    TMP DP  RH WIND       PRES   REMARKS
BEMIDJI        CLEAR     35  30  83 E5        30.25R WCI  30
HALLOCK        CLEAR     39  28  65 NE5       30.29S
ROSEAU         CLEAR     37  30  75 N3        30.28S
WARROAD        CLEAR     41  34  75 N6        30.28F
THIEF RVR FALL CLEAR     43  27  52 NE7       30.27S
CROOKSTON      CLEAR     43  28  56 E6        30.27S
FOSSTON        CLEAR     37  27  65 NE5       30.25S
DETROIT LAKES  CLEAR     43  32  65 E5        30.24S
MOORHEAD       CLEAR     39  28  65 E5        30.24R
PARK RAPIDS    CLEAR     41  28  60 NE5       30.23R
MAHNOMEN       FAIR      38  28  68 E8        30.24R
$$
MNZ006-009>011-018-025>026-010800-
   North Central Minnesota

CITY           SKY/WX    TMP DP  RH WIND       PRES   REMARKS
BAUDETTE       CLEAR     40  26  57 NE6       30.26S
FLAG ISLAND    CLEAR     43  36  75 N5        30.28S
INTL FALLS     CLEAR     37  29  72 NE6       30.26S
WASKISH        CLEAR     37  30  75 CALM      30.26S
BIG FORK       CLEAR     28  27  93 CALM      30.25S
LONGVILLE      CLEAR     30  28  93 CALM      30.23S
GRAND RAPIDS   CLEAR     30  23  74 CALM      30.24S
CRANE LAKE     CLEAR     27  25  93 CALM      30.28S
ORR            CLEAR     28  25  86 CALM      30.23S
COOK           CLEAR     28  27  93 CALM      30.25S
WALKER         FAIR      40  29  65 CALM      30.24S
$$
MNZ012-019>021-037-010800-
   Northeast Minnesota

CITY           SKY/WX    TMP DP  RH WIND       PRES   REMARKS
DULUTH         CLEAR     35  27  72 NE8       30.21S WCI  29
ELY            CLEAR     27  27 100 CALM      30.25S
HIBBING        CLEAR     26  25  96 N3        30.23S
EVELETH        CLEAR     30  28  93 CALM      30.25S
DULUTH HARBOR  CLEAR     39  34  81 NE15      30.23S
TWO HARBORS    CLEAR     37  28  70 N7        30.21F
SILVER BAY     CLEAR     28  27  93 N3        30.22S
GRAND MARAIS     N/A     41  27  57 N8        30.24S
G MARAIS ARPRT CLEAR     30  23  74 N6        30.23S WCI  24
$$
MNZ029>031-032-039>041-046>048-054>057-064-010800-
   West Central Minnesota

CITY           SKY/WX    TMP DP  RH WIND       PRES   REMARKS
FERGUS FALLS   CLEAR     43  28  56 E9        30.21R
WHEATON        CLEAR     43  32  65 N6        30.22S
MORRIS         CLOUDY    43  28  56 NE14      30.17S
ALEXANDRIA     CLEAR     39  27  62 NE9       30.20R
ELBOW LAKE     FAIR      43  31  62 NE7       30.20S
WADENA         CLEAR     37  27  65 NE3       30.22R
GLENWOOD       CLOUDY    37  28  70 NE12      30.18S
APPLETON       CLOUDY    43  30  61 NE8       30.16S
BENSON         CLOUDY    43  27  52 E10G16    30.16S
ORTONVILLE     CLOUDY    43  30  61 NE8       30.17S
MADISON        MOCLDY    43  30  61 NE12G18   30.15S
WILLMAR        FAIR      45  30  57 NE16      30.16S
$$
MNZ033>034-036-042>043-049>051-058-059-010800-
   Central Minnesota

CITY           SKY/WX    TMP DP  RH WIND       PRES   REMARKS
ST CLOUD       CLOUDY    40  29  64 NE6       30.16S
SAUK CENTRE    FAIR      39  28  63 NE8       30.18S
PAYNESVILLE    CLOUDY    41  28  61 NE9G17    30.16F
AITKIN         CLEAR     37  25  60 NE6       30.20S
PINE RIVER     CLEAR     36  27  69 N3        30.26R
BRAINERD       CLEAR     34  26  72 NE6       30.21S WCI  29
STAPLES        CLEAR     37  27  65 CALM      30.21S
LONG PRAIRIE   FAIR      37  27  65 N6        30.19S
LITTLE FALLS   CLOUDY    37  28  70 CALM      30.19S
LITCHFIELD     PTCLDY    43  30  61 NE9       30.15S
BUFFALO        CLOUDY    41  30  63 N10       30.15S
MAPLE LAKE     CLOUDY    42  32  67 N6        30.16S
HUTCHINSON     PTCLDY    44  31  61 NE12G17   30.14S
$$
MNZ037-044-045-052-053-010800-
   East Central Minnesota

CITY           SKY/WX    TMP DP  RH WIND       PRES   REMARKS
PRINCETON        N/A     41  30  65 N9        30.16F
MORA           CLOUDY    36  28  75 NE5       30.19S
CAMBRIDGE      CLOUDY    43  30  61 N6        30.14S
RUSH CITY      PTCLDY    38  30  72 NE7       30.16F
MOOSE LAKE     CLOUDY    34  28  80 NE7       30.19S WCI  28
HINCKLEY       FAIR      36  32  87 NE8       30.18S
CLOQUET        CLEAR     36  27  69 N7        30.21S
MCGREGOR       CLEAR     36  30  80 NE5       30.22S
$$
MNZ071>073-080-081-089-090-097-098-010800-
   Southwest Minnesota

CITY           SKY/WX    TMP DP  RH WIND       PRES   REMARKS
MONTEVIDEO     CLOUDY    43  30  61 E12       30.16S
GRANITE FALLS  CLOUDY    44  32  62 NE13G18   30.15S
CANBY          CLOUDY    46  35  66 NE8       30.16R
MARSHALL       CLOUDY    43  33  68 NE8       30.13R
REDWOOD FALLS  CLOUDY    45  29  53 E8        30.12R
OLIVIA         PTCLDY    41  30  65 NE9       30.13S
WINDOM         DRIZZLE   43  43 100 NE7       30.10R
WORTHINGTON    LGT RAIN  42  40  92 NE16      30.08S
JACKSON        LGT SNOW  43  39  87 NE16      30.08S
TRACY          DRIZZLE   44  39  84 E8        30.12S
SLAYTON        DRIZZLE   42  42 100 NE8       30.11R
$$
MNZ065>067-074>077-082>085-091>093-010800-
   South Central Minnesota

CITY           SKY/WX    TMP DP  RH WIND       PRES   REMARKS
MANKATO        CLOUDY    45  37  76 NE9       30.10S
NEW ULM        CLOUDY    43  37  81 NE8       30.11S
ST JAMES       LGT RAIN  39  37  93 N5        30.11S
FAIRMONT       CLOUDY    43  36  75 NE14      30.07R
GLENCOE        CLOUDY    45  33  65 NE6       30.12S
OWATONNA       DRIZZLE   45  39  81 NE7       30.09S
WASECA         CLOUDY    43  37  81 NE9       30.10S
ALBERT LEA     CLOUDY    43  43 100 NE10      30.06S
$$
MNZ078>079-086>088-094>096-010800-
   Southeast Minnesota

CITY           SKY/WX    TMP DP  RH WIND       PRES   REMARKS
ROCHESTER      CLOUDY    42  39  89 NE12      30.07S
RED WING       CLOUDY    46  37  71 CALM      30.09S
STANTON        CLOUDY    44  41  87 CALM      30.09S
DODGE CENTER   CLOUDY    41  41 100 NE9       30.07S
WINONA         CLOUDY    46  39  76 N3        30.08S
AUSTIN         CLOUDY    43  37  81 NE13      30.05S
PRESTON        CLOUDY    40  38  91 NE12      30.05F
$$
ABBREVIATIONS USED IN REMARKS
   TC - TEMPERATURES IN CELSIUS
  WCI - WIND CHILL INDEX
   HX - HEAT INDEX
  VSB - VISIBILITY
$$




USA.gov is the U.S. government's official web portal to all federal, state and local government web resources and services.